Location: Newark
(34.1333°N, 7.9667°W)
Time: 07:55:59
(UTC+00:00)

UKube-1 - Pass Details

Date: 11 June 2023
Orbit: 598 x 602 km, 98.3° (Epoch: 28 September)

Event Time Altitude Azimuth Distance (km) Brightness Sun altitude
Rises 00:14:26 0° 7° (N) 2,855 ? -32.7°
Reaches altitude 10° 00:16:39 10° 2° (N) 1,947 ? -32.7°
Enters shadow 00:18:34 25° 352° (N) 1,214 ? -32.7°
